Date String (YYYY-MM-DD hh:mm:ss) UTC,Instrument flags,absolute air pressure of the measurement (hPa),sample flow rate (lpm),inlet stack bypass flow (lpm),air temperature of the measurement (°C),ambient temperature measured by the external sensor (°C),aerosol sample conditioner tube jacket temperature (°C),OPC LED temperature (°C),internal box temperature (°C),relative humidity of the measurement (%),span deviation,mass concentration of particles derived from Lorenz-Mie calculation of OPC scattering (μg/m³),mass concentration of particles derived from Lorenz-Mie calculation of OPC scattering (μg/m³),mass concentration of particles derived from Lorenz-Mie calculation of OPC scattering (μg/m³)
DateTimeUTC,F1_M11,P_M11,Q1_M11,Q2_M11,T1_M11,T2_M11,T3_M11,T4_M11,T5_M11,U1_M11,ZSPAN_M11,X0_M11,X2_M11,X1_M11
2023-09-26 16:00:00,SystemResetWarning,0835.9,4.99,000.00,028.7,027.6,000.0,037.1,030.5,15.9,0000.0,0015.73,0005.29,0003.95
2023-09-26 16:01:00,SystemResetWarning,0835.9,4.98,000.00,028.7,026.3,000.0,037.0,030.5,15.8,0000.0,0015.29,0005.28,0003.95
2023-09-26 16:02:00,SystemResetWarning,0835.9,5.01,000.00,028.7,024.8,000.0,037.0,030.2,15.9,0000.0,0015.17,0005.29,0003.93
2023-09-26 16:03:00,SystemResetWarning,0835.9,5.02,000.00,028.6,024.7,000.0,036.9,030.1,16.1,0000.0,0015.39,0005.30,0003.92
2023-09-26 16:04:00,SystemResetWarning,0835.9,4.99,000.00,028.5,025.0,000.0,037.0,030.0,16.5,0000.0,0015.34,0005.33,0003.92
2023-09-26 16:05:00,SystemResetWarning,0835.9,5.00,000.00,028.4,025.3,000.0,036.9,029.9,16.5,0000.0,0016.15,0005.35,0003.93
2023-09-26 16:06:00,SystemResetWarning,0835.9,5.00,000.00,028.4,025.7,000.0,036.9,029.9,16.4,0000.0,0016.48,0005.41,0003.92
2023-09-26 16:07:00,SystemResetWarning,0835.9,5.00,000.00,028.4,026.0,000.0,036.9,029.9,16.1,0000.0,0016.32,0005.40,0003.91
2023-09-26 16:08:00,SystemResetWarning,0835.9,5.00,000.00,028.4,026.3,000.0,036.9,030.0,16.1,0000.0,0016.67,0005.37,0003.91
2023-09-26 16:09:00,SystemResetWarning,0835.9,5.00,000.00,028.4,026.6,000.0,036.9,030.0,16.0,0000.0,0017.40,0005.37,0003.91
2023-09-26 16:10:00,SystemResetWarning,0835.9,5.00,000.00,028.4,026.8,000.0,036.9,030.1,15.5,0002.3,0016.83,0005.34,0003.90
2023-09-26 16:11:00,SystemResetWarning,0835.9,5.00,000.00,028.4,026.9,000.0,036.9,030.1,15.7,0000.0,0015.91,0005.33,0003.89
2023-09-26 16:12:00,SystemResetWarning,0835.9,5.00,000.00,028.5,027.1,000.0,036.9,030.2,15.7,0000.0,0015.98,0005.31,0003.89
2023-09-26 16:13:00,SystemResetWarning,0835.9,5.00,000.00,028.5,027.2,000.0,036.9,030.2,15.8,0000.0,0015.60,0005.26,0003.89
2023-09-26 16:14:00,SystemResetWarning,0835.9,4.99,000.00,028.5,027.3,000.0,036.9,030.2,16.0,0000.0,0014.86,0005.22,0003.90
2023-09-26 16:15:00,SystemResetWarning,0835.9,5.00,000.00,028.6,027.4,000.0,036.9,030.3,16.1,0000.0,0014.86,0005.18,0003.90
2023-09-26 16:16:00,SystemResetWarning,0835.9,5.00,000.00,028.6,027.5,000.0,036.9,030.3,16.0,0000.0,0015.18,0005.14,0003.88
2023-09-26 16:17:00,SystemResetWarning,0835.9,5.00,000.00,028.6,027.6,000.0,037.0,030.4,15.7,0000.0,0014.80,0005.10,0003.87
2023-09-26 16:18:00,SystemResetWarning,0835.9,4.99,000.00,028.7,027.6,000.0,037.0,030.4,15.6,0000.0,0014.35,0005.05,0003.87
2023-09-26 16:19:00,SystemResetWarning,0835.9,4.98,000.00,028.7,026.5,000.0,037.0,030.4,15.3,0000.0,0014.24,0005.01,0003.86
2023-09-26 16:20:00,SystemResetWarning,0835.9,5.01,000.00,028.6,024.8,000.0,036.9,030.2,15.7,0000.0,0013.84,0005.00,0003.86
2023-09-26 16:21:00,SystemResetWarning,0835.9,5.01,000.00,028.5,024.6,000.0,036.9,030.1,16.1,0000.0,0014.03,0005.01,0003.86
2023-09-26 16:22:00,SystemResetWarning,0835.9,4.99,000.00,028.4,024.9,000.0,036.9,029.9,15.9,0000.0,0014.08,0004.96,0003.85
2023-09-26 16:23:00,SystemResetWarning,0835.9,4.99,000.00,028.4,025.2,000.0,036.9,029.9,16.0,0000.0,0013.60,0004.93,0003.85
2023-09-26 16:24:00,SystemResetWarning,0835.9,5.00,000.00,028.3,025.6,000.0,036.9,029.9,16.4,0001.3,0014.34,0004.97,0003.85
2023-09-26 16:25:00,SystemResetWarning,0835.9,5.00,000.00,028.3,025.9,000.0,036.9,029.9,16.6,0001.8,0014.34,0004.93,0003.83
2023-09-26 16:26:00,SystemResetWarning,0835.9,5.00,000.00,028.3,026.2,000.0,036.8,029.9,17.2,0003.3,0015.02,0004.91,0003.81
2023-09-26 16:27:00,SystemResetWarning,0835.9,5.01,000.00,028.4,026.5,000.0,036.8,030.0,17.1,0002.2,0015.04,0004.88,0003.82
2023-09-26 16:28:00,SystemResetWarning,0835.9,5.01,000.00,028.4,026.7,000.0,036.8,030.0,17.2,0004.3,0014.53,0004.80,0003.81
2023-09-26 16:29:00,SystemResetWarning,0835.9,5.00,000.00,028.4,026.9,000.0,036.8,030.1,17.0,0004.6,0014.96,0004.78,0003.79
2023-09-26 16:30:00,SystemResetWarning,0835.9,5.00,000.00,028.4,027.1,000.0,036.9,030.1,16.5,0002.8,0015.13,0004.73,0003.78
2023-09-26 16:31:00,SystemResetWarning,0835.8,4.99,000.00,028.5,027.2,000.0,036.9,030.2,16.8,0000.0,0014.40,0004.70,0003.77
2023-09-26 16:32:00,SystemResetWarning,0835.8,5.00,000.00,028.5,027.3,000.0,036.9,030.2,16.5,0000.0,0015.55,0004.70,0003.75
2023-09-26 16:33:00,SystemResetWarning,0835.8,5.00,000.00,028.5,027.4,000.0,036.9,030.3,16.7,0000.0,0015.88,0004.74,0003.74
2023-09-26 16:34:00,SystemResetWarning,0835.8,5.00,000.00,028.6,027.5,000.0,036.9,030.3,16.5,0000.0,0015.82,0004.75,0003.73
2023-09-26 16:35:00,SystemResetWarning,0835.8,5.00,000.00,028.6,027.6,000.0,036.9,030.4,16.2,0000.0,0014.94,0004.71,0003.72
2023-09-26 16:36:00,SystemResetWarning,0835.9,5.00,000.00,028.6,027.4,000.0,036.9,030.4,16.1,0000.0,0015.29,0004.74,0003.73
2023-09-26 16:37:00,SystemResetWarning,0835.8,4.99,000.00,028.6,025.7,000.0,036.9,030.3,16.0,0000.0,0014.87,0004.79,0003.73
2023-09-26 16:38:00,SystemResetWarning,0835.8,5.01,000.00,028.5,024.5,000.0,036.8,030.1,16.0,0000.0,0014.17,0004.87,0003.72
2023-09-26 16:39:00,SystemResetWarning,0835.8,5.01,000.00,028.5,024.7,000.0,036.8,030.0,16.0,0000.0,0014.47,0004.91,0003.72
2023-09-26 16:40:00,SystemResetWarning,0835.8,5.00,000.00,028.4,025.0,000.0,036.8,029.8,15.7,0000.0,0015.14,0004.92,0003.73
2023-09-26 16:41:00,SystemResetWarning,0835.8,5.00,000.00,028.3,025.3,000.0,036.8,029.8,15.9,0000.0,0015.12,0004.91,0003.73
2023-09-26 16:42:00,SystemResetWarning,0835.8,5.00,000.00,028.3,025.7,000.0,036.8,029.8,15.8,0000.0,0015.52,0004.91,0003.72
2023-09-26 16:43:00,SystemResetWarning,0835.8,5.00,000.00,028.3,026.0,000.0,036.8,029.9,15.7,0000.0,0014.31,0004.85,0003.72
2023-09-26 16:44:00,SystemResetWarning,0835.8,5.00,000.00,028.3,026.3,000.0,036.8,029.9,15.7,0000.0,0014.02,0004.79,0003.72
2023-09-26 16:45:00,SystemResetWarning,0835.8,4.99,000.00,028.3,026.6,000.0,036.8,030.0,15.7,0000.0,0014.26,0004.76,0003.73
2023-09-26 16:46:00,SystemResetWarning,0835.8,5.00,000.00,028.3,026.8,000.0,036.8,030.0,15.5,0000.0,0014.19,0004.75,0003.73
2023-09-26 16:47:00,SystemResetWarning,0835.9,4.99,000.00,028.4,026.9,000.0,036.8,030.1,15.7,0000.0,0013.79,0004.78,0003.74
2023-09-26 16:48:00,SystemResetWarning,0835.8,5.00,000.00,028.4,027.1,000.0,036.8,030.1,16.0,0000.0,0014.06,0004.76,0003.75
2023-09-26 16:49:00,SystemResetWarning,0835.8,5.00,000.00,028.4,027.2,000.0,036.8,030.2,15.9,0000.0,0014.75,0004.68,0003.75
2023-09-26 16:50:00,SystemResetWarning,0835.8,5.00,000.00,028.5,027.4,000.0,036.8,030.2,15.9,0000.0,0015.12,0004.66,0003.76
2023-09-26 16:51:00,SystemResetWarning,0835.8,5.01,000.00,028.5,027.5,000.0,036.9,030.3,15.4,0000.0,0014.89,0004.71,0003.78
2023-09-26 16:52:00,SystemResetWarning,0835.8,5.00,000.00,028.5,027.5,000.0,036.9,030.3,15.3,0000.0,0014.14,0004.75,0003.79
2023-09-26 16:53:00,SystemResetWarning,0835.8,4.98,000.00,028.6,026.6,000.0,036.9,030.3,15.5,0000.0,0013.79,0004.78,0003.81
2023-09-26 16:54:00,SystemResetWarning,0835.8,5.00,000.00,028.5,024.9,000.0,036.8,030.1,15.7,0000.0,0013.89,0004.84,0003.81
2023-09-26 16:55:00,SystemResetWarning,0835.8,5.01,000.00,028.4,024.5,000.0,036.8,030.0,16.0,0000.0,0013.68,0004.84,0003.81
2023-09-26 16:56:00,SystemResetWarning,0835.8,5.01,000.00,028.3,024.8,000.0,036.8,029.8,16.1,0002.2,0014.76,0004.89,0003.82
2023-09-26 16:57:00,SystemResetWarning,0835.7,4.99,000.00,028.3,025.1,000.0,036.8,029.7,15.8,0001.5,0015.11,0004.94,0003.84
2023-09-26 16:58:00,SystemResetWarning,0835.7,4.99,000.00,028.2,025.5,000.0,036.8,029.8,15.5,0001.7,0015.24,0004.90,0003.84
2023-09-26 16:59:00,SystemResetWarning,0835.7,5.00,000.00,028.2,025.9,000.0,036.8,029.8,15.1,0002.2,0015.21,0004.90,0003.84
